GSAT0214 (GALILEO 18)

Last updated on Jan. 15, 2021, 6:30 a.m. UTC

1 41862U 16069D   21013.80566796  .00000010  00000-0  00000-0 0  9998
2 41862  54.6878 155.9996 0000904 263.4954  96.4299  1.70473620 25883
UTC
Height (km)
Latitude
Longitude
Inclination
Orbital Period
UTC large
Height (km)
Speed (km/s)
/
Latitude / Longitude
Inclination (degrees)
Orbital Period (minutes)
Azimuth
Elevation
Range (km)
Doppler Factor
iOS Compass Heading
iOS Angle

Next 30 passes for location: Hong Kong

Rise time Rise Azimuth (degrees) Set time Set Azimuth (degrees) Duration Max altitude (degrees)

No matching passes for this satellites